START_TIME,STEP,MOV.,M15,t_acc.,M20,t_acc.
1979-07-23 12:00:43.450 ,0,0,0.,24.0,0.,24.0
1979-07-23 12:01:55.450 ,0,0,0.,24.0,0.,24.0
1979-07-23 12:02:19.450 ,0,0,0.,24.0,0.,24.0
1979-07-23 12:02:43.450 ,3,1,0.,24.0,0.,24.0
1979-07-23 12:03:07.450 ,3,0,0.,24.0,0.,24.0
1979-07-23 12:03:31.450 ,4,1,0.,24.0,0.,24.0
1979-07-23 12:03:55.450 ,4,0,0.,24.0,0.,24.0
1979-07-23 12:04:19.450 ,5,1,0.,24.0,0.,24.0
1979-07-23 12:04:43.450 ,5,0,0.,24.0,0.,24.0
1979-07-23 12:05:07.450 ,6,1,0.,24.0,0.,24.0
1979-07-23 12:05:31.450 ,6,0,0.,24.0,0.,24.0
1979-07-23 12:05:55.450 ,7,1,0.,24.0,0.,24.0
1979-07-23 12:06:19.450 ,7,0,0.,24.0,0.,24.0
1979-07-23 12:06:43.450 ,7,1,0.,24.0,0.,24.0
1979-07-23 12:07:07.450 ,0,0,,0,,0
1979-07-23 12:07:31.450 ,6,1,0.,24.0,0.,24.0
1979-07-23 12:07:55.450 ,6,0,0.,24.0,0.,24.0
1979-07-23 12:08:19.450 ,5,1,1.,24.0,0.,24.0
1979-07-23 12:08:43.450 ,5,0,0.,24.0,0.,24.0
1979-07-23 12:09:07.450 ,4,1,0.,24.0,0.,24.0
1979-07-23 12:09:31.450 ,4,0,0.,24.0,0.,24.0
1979-07-23 12:09:55.450 ,3,1,0.,24.0,0.,24.0
1979-07-23 12:10:19.450 ,3,0,0.,24.0,0.,24.0
1979-07-23 12:10:43.450 ,2,1,0.,24.0,0.,24.0
1979-07-23 12:11:07.450 ,2,0,0.,24.0,0.,24.0
1979-07-23 12:11:31.450 ,1,1,0.,24.0,0.,24.0
1979-07-23 12:11:55.450 ,1,0,0.,24.0,0.,24.0
1979-07-23 12:12:19.450 ,0,1,0.,24.0,0.,24.0
1979-07-23 12:12:43.450 ,0,0,0.,24.0,0.,24.0
1979-07-23 12:13:07.450 ,0,1,0.,24.0,0.,24.0
1979-07-23 12:13:31.450 ,0,0,0.,24.0,0.,24.0
1979-07-23 12:13:55.450 ,1,1,0.,24.0,0.,24.0
1979-07-23 12:14:19.450 ,1,0,0.,24.0,0.,24.0
1979-07-23 12:14:43.450 ,2,1,0.,24.0,0.,24.0
1979-07-23 12:15:07.450 ,2,0,0.,24.0,0.,24.0
1979-07-23 12:15:31.450 ,3,1,0.,24.0,0.,24.0
1979-07-23 12:15:55.450 ,3,0,0.,24.0,0.,24.0
1979-07-23 12:16:19.450 ,4,1,0.,24.0,0.,24.0
1979-07-23 12:16:43.450 ,4,0,0.,24.0,0.,24.0
1979-07-23 12:17:07.450 ,5,1,0.,24.0,0.,24.0
1979-07-23 12:17:31.450 ,5,0,0.,24.0,0.,24.0
1979-07-23 12:17:55.450 ,6,1,0.,24.0,0.,24.0
1979-07-23 12:18:19.450 ,6,0,0.,24.0,0.,24.0
1979-07-23 12:18:43.450 ,7,0,0.,24.0,0.,24.0
1979-07-23 12:19:07.450 ,7,0,0.,24.0,0.,24.0
1979-07-23 12:19:31.450 ,3,1,0.,24.0,0.,24.0
1979-07-23 12:19:55.450 ,0,1,0.,24.0,0.,24.0
1979-07-23 12:20:19.450 ,4,1,0.,24.0,0.,24.0
1979-07-23 12:20:43.450 ,7,1,0.,24.0,0.,24.0
1979-07-23 12:21:07.450 ,3,1,0.,24.0,0.,24.0
1979-07-23 12:21:31.450 ,0,1,0.,24.0,0.,24.0
1979-07-23 12:21:55.450 ,4,1,0.,24.0,0.,24.0
1979-07-23 12:22:19.450 ,7,1,0.,24.0,0.,24.0
1979-07-23 12:22:43.450 ,3,1,0.,24.0,0.,24.0
1979-07-23 12:23:07.450 ,0,1,0.,24.0,0.,24.0
1979-07-23 12:23:31.450 ,4,1,0.,24.0,0.,24.0
1979-07-23 12:23:55.450 ,7,1,0.,24.0,0.,24.0
1979-07-23 12:24:19.450 ,3,1,0.,24.0,0.,24.0
1979-07-23 12:24:43.450 ,0,1,0.,24.0,0.,24.0
1979-07-23 12:25:07.450 ,4,1,0.,24.0,0.,24.0
1979-07-23 12:25:31.450 ,7,1,0.,24.0,0.,24.0
1979-07-23 12:25:55.450 ,3,1,0.,24.0,0.,24.0
1979-07-23 12:26:19.450 ,0,1,0.,24.0,0.,24.0
1979-07-23 12:26:43.450 ,4,1,0.,24.0,0.,24.0
1979-07-23 12:27:07.450 ,7,1,0.,24.0,0.,24.0
1979-07-23 12:27:31.450 ,3,1,0.,24.0,0.,24.0
1979-07-23 12:27:55.450 ,0,1,0.,24.0,0.,24.0
1979-07-23 12:28:19.450 ,4,1,0.,24.0,0.,24.0
1979-07-23 12:28:43.450 ,7,1,0.,24.0,0.,24.0
1979-07-23 12:29:07.450 ,3,1,0.,24.0,0.,24.0
1979-07-23 12:29:31.450 ,0,1,0.,24.0,0.,24.0
1979-07-23 12:29:55.450 ,0,0,0.,24.0,0.,24.0
1979-07-23 12:30:19.450 ,0,0,0.,24.0,0.,24.0
1979-07-23 12:30:43.450 ,5,1,0.,24.0,0.,24.0
1979-07-23 12:31:07.450 ,5,0,0.,24.0,0.,24.0
1979-07-23 12:31:31.450 ,4,1,0.,24.0,0.,24.0
1979-07-23 12:31:55.450 ,4,0,0.,24.0,0.,24.0
1979-07-23 12:32:19.450 ,3,1,0.,24.0,0.,24.0
1979-07-23 12:32:43.450 ,3,0,0.,24.0,0.,24.0
1979-07-23 12:33:07.450 ,2,1,0.,24.0,0.,24.0
1979-07-23 12:33:31.450 ,2,0,0.,24.0,0.,24.0
1979-07-23 12:33:55.450 ,1,1,0.,24.0,0.,24.0
1979-07-23 12:34:19.450 ,1,0,0.,24.0,0.,24.0
1979-07-23 12:34:43.450 ,0,1,0.,24.0,0.,24.0
1979-07-23 12:35:07.450 ,0,0,0.,24.0,0.,24.0
1979-07-23 12:35:31.450 ,0,1,0.,24.0,0.,24.0
1979-07-23 12:35:55.450 ,0,0,0.,24.0,0.,24.0
1979-07-23 12:36:19.450 ,1,1,0.,24.0,0.,24.0
1979-07-23 12:36:43.450 ,1,0,0.,24.0,0.,24.0
1979-07-23 12:37:07.450 ,2,1,0.,24.0,0.,24.0
1979-07-23 12:37:31.450 ,2,0,0.,24.0,0.,24.0
1979-07-23 12:37:55.450 ,3,1,0.,24.0,0.,24.0
1979-07-23 12:38:19.450 ,3,0,0.,24.0,0.,24.0
1979-07-23 12:38:43.450 ,4,1,0.,24.0,0.,24.0
1979-07-23 12:39:07.450 ,4,0,0.,24.0,0.,24.0
1979-07-23 12:39:31.450 ,5,1,0.,24.0,0.,24.0
1979-07-23 12:39:55.450 ,5,0,0.,24.0,0.,24.0
1979-07-23 12:40:19.450 ,6,1,0.,24.0,0.,24.0
1979-07-23 12:40:43.450 ,6,0,0.,24.0,0.,24.0
1979-07-23 12:41:07.450 ,7,1,0.,24.0,0.,24.0
1979-07-23 12:41:31.450 ,7,0,0.,24.0,0.,24.0
1979-07-23 12:41:55.450 ,7,1,0.,24.0,0.,24.0
1979-07-23 12:42:19.450 ,7,0,0.,24.0,0.,24.0
1979-07-23 12:42:43.450 ,6,1,0.,24.0,0.,24.0
1979-07-23 12:43:07.450 ,6,0,0.,24.0,0.,24.0
1979-07-23 12:43:31.450 ,5,1,0.,24.0,0.,24.0
1979-07-23 12:43:55.450 ,5,0,0.,24.0,0.,24.0
1979-07-23 12:44:19.450 ,4,1,0.,24.0,0.,24.0
1979-07-23 12:44:43.450 ,4,0,0.,24.0,0.,24.0
1979-07-23 12:45:07.450 ,3,1,0.,24.0,0.,24.0
1979-07-23 12:45:31.450 ,3,0,0.,24.0,0.,24.0
1979-07-23 12:45:55.450 ,2,1,0.,24.0,0.,24.0
1979-07-23 12:46:19.450 ,2,0,0.,24.0,0.,24.0
1979-07-23 12:46:43.450 ,1,1,0.,24.0,0.,24.0
1979-07-23 12:47:07.450 ,1,0,0.,24.0,0.,24.0
1979-07-23 12:47:31.450 ,0,1,0.,24.0,0.,24.0
1979-07-23 12:47:55.450 ,0,0,0.,24.0,0.,24.0
1979-07-23 12:48:19.450 ,0,1,0.,24.0,0.,24.0
1979-07-23 12:48:43.450 ,0,0,0.,24.0,0.,24.0
1979-07-23 12:49:07.450 ,1,1,0.,24.0,0.,24.0
1979-07-23 12:49:31.450 ,1,0,0.,24.0,0.,24.0
1979-07-23 12:49:55.450 ,2,1,0.,24.0,0.,24.0
1979-07-23 12:50:19.450 ,2,0,0.,24.0,0.,24.0
1979-07-23 12:50:43.450 ,3,1,0.,24.0,0.,24.0
1979-07-23 12:51:07.450 ,3,0,0.,24.0,0.,24.0
1979-07-23 12:51:31.450 ,4,1,0.,24.0,0.,24.0
1979-07-23 12:51:55.450 ,4,0,0.,24.0,0.,24.0
1979-07-23 12:52:19.450 ,5,1,0.,24.0,0.,24.0
1979-07-23 12:52:43.450 ,5,0,0.,24.0,0.,24.0
1979-07-23 12:53:07.450 ,6,1,0.,24.0,0.,24.0
1979-07-23 12:53:31.450 ,6,0,0.,24.0,0.,24.0
1979-07-23 12:53:55.450 ,7,1,0.,24.0,0.,24.0
1979-07-23 12:54:19.450 ,7,0,0.,24.0,0.,24.0
1979-07-23 12:54:43.450 ,7,1,0.,24.0,0.,24.0
1979-07-23 12:55:07.450 ,7,0,0.,24.0,0.,24.0
1979-07-23 12:55:31.450 ,6,1,0.,24.0,0.,24.0
1979-07-23 12:55:55.450 ,6,0,0.,24.0,0.,24.0
1979-07-23 12:56:19.450 ,5,1,0.,24.0,0.,24.0
1979-07-23 12:56:43.450 ,5,0,0.,24.0,0.,24.0
1979-07-23 12:57:07.450 ,4,1,0.,24.0,0.,24.0
1979-07-23 12:57:31.450 ,4,0,0.,24.0,0.,24.0
1979-07-23 12:57:55.450 ,3,1,0.,24.0,0.,24.0
1979-07-23 12:58:19.450 ,3,0,0.,24.0,0.,24.0
1979-07-23 12:58:43.450 ,2,1,0.,24.0,0.,24.0
1979-07-23 12:59:07.450 ,2,0,0.,24.0,0.,24.0
1979-07-23 12:59:31.450 ,1,1,0.,24.0,0.,24.0
1979-07-23 12:59:55.450 ,1,0,0.,24.0,0.,24.0
1979-07-23 13:00:19.450 ,0,1,0.,24.0,0.,24.0
1979-07-23 13:00:43.450 ,0,0,0.,24.0,0.,24.0
1979-07-23 13:01:07.450 ,0,1,0.,24.0,0.,24.0
1979-07-23 13:01:31.450 ,0,0,0.,24.0,0.,24.0
1979-07-23 13:01:55.450 ,1,1,0.,24.0,0.,24.0
1979-07-23 13:02:19.450 ,1,0,0.,24.0,0.,24.0
1979-07-23 13:02:43.450 ,2,1,0.,24.0,0.,24.0
1979-07-23 13:03:07.450 ,2,0,0.,24.0,0.,24.0
1979-07-23 13:03:31.450 ,3,1,0.,24.0,0.,24.0
1979-07-23 13:03:55.450 ,3,0,0.,24.0,0.,24.0
1979-07-23 13:04:19.450 ,4,1,0.,24.0,0.,24.0
1979-07-23 13:04:43.450 ,4,0,0.,24.0,0.,24.0
1979-07-23 13:05:07.450 ,5,1,0.,24.0,0.,24.0
1979-07-23 13:05:31.450 ,5,0,0.,24.0,0.,24.0
1979-07-23 13:05:55.450 ,6,1,0.,24.0,0.,24.0
1979-07-23 13:06:19.450 ,6,0,0.,24.0,0.,24.0
1979-07-23 13:06:43.450 ,7,0,0.,24.0,0.,24.0
1979-07-23 13:07:07.450 ,7,0,0.,24.0,0.,24.0
1979-07-23 13:07:31.450 ,3,1,0.,24.0,0.,24.0
1979-07-23 13:07:55.450 ,0,1,0.,24.0,0.,24.0
1979-07-23 13:08:19.450 ,4,1,0.,24.0,0.,24.0
1979-07-23 13:08:43.450 ,7,1,0.,24.0,0.,24.0
1979-07-23 13:09:07.450 ,3,1,0.,24.0,0.,24.0
1979-07-23 13:09:31.450 ,0,1,0.,24.0,0.,24.0
1979-07-23 13:09:55.450 ,4,1,0.,24.0,0.,24.0
1979-07-23 13:10:19.450 ,7,1,0.,24.0,0.,24.0
1979-07-23 13:10:43.450 ,3,1,0.,24.0,0.,24.0
1979-07-23 13:11:07.450 ,0,1,0.,24.0,0.,24.0
1979-07-23 13:11:31.450 ,4,1,0.,24.0,0.,24.0
1979-07-23 13:11:55.450 ,7,1,0.,24.0,0.,24.0
1979-07-23 13:12:19.450 ,3,1,0.,24.0,0.,24.0
1979-07-23 13:12:43.450 ,0,1,0.,24.0,0.,24.0
1979-07-23 13:13:07.450 ,4,1,0.,24.0,0.,24.0
1979-07-23 13:13:31.450 ,7,1,0.,24.0,0.,24.0
1979-07-23 13:13:55.450 ,3,1,0.,24.0,0.,24.0
1979-07-23 13:14:19.450 ,0,1,0.,24.0,0.,24.0
1979-07-23 13:14:43.450 ,4,1,0.,24.0,0.,24.0
1979-07-23 13:15:07.450 ,7,1,0.,24.0,0.,24.0
1979-07-23 13:15:31.450 ,3,1,0.,24.0,0.,24.0
1979-07-23 13:15:55.450 ,0,1,0.,24.0,0.,24.0
1979-07-23 13:16:19.450 ,4,1,0.,24.0,0.,24.0
1979-07-23 13:16:43.450 ,7,1,0.,24.0,0.,24.0
1979-07-23 13:17:07.450 ,3,1,0.,24.0,0.,24.0
1979-07-23 13:17:31.450 ,0,1,0.,24.0,0.,24.0
1979-07-23 13:17:55.450 ,0,0,0.,24.0,0.,24.0
1979-07-23 13:18:19.450 ,0,0,0.,24.0,0.,24.0
1979-07-23 13:18:43.450 ,5,1,0.,24.0,0.,24.0
1979-07-23 13:19:07.450 ,5,0,0.,24.0,0.,24.0
1979-07-23 13:19:31.450 ,4,1,0.,24.0,0.,24.0
1979-07-23 13:19:55.450 ,4,0,0.,24.0,0.,24.0
1979-07-23 13:20:19.450 ,3,1,0.,24.0,0.,24.0
1979-07-23 13:20:43.450 ,3,0,0.,24.0,0.,24.0
1979-07-23 13:21:07.450 ,2,1,0.,24.0,0.,24.0
1979-07-23 13:21:31.450 ,2,0,0.,24.0,0.,24.0
1979-07-23 13:21:55.450 ,1,1,0.,24.0,0.,24.0
1979-07-23 13:22:19.450 ,1,0,0.,24.0,0.,24.0
1979-07-23 13:23:31.450 ,0,0,0.,24.0,0.,24.0
1979-07-23 13:23:55.450 ,0,0,0.,24.0,0.,24.0
1979-07-23 13:24:19.450 ,1,1,0.,24.0,0.,24.0
1979-07-23 13:24:43.450 ,1,0,0.,24.0,0.,24.0
1979-07-23 13:25:07.450 ,2,1,0.,24.0,0.,24.0
1979-07-23 13:25:31.450 ,2,0,0.,24.0,0.,24.0
1979-07-23 13:25:55.450 ,3,1,0.,24.0,0.,24.0
1979-07-23 13:26:19.450 ,3,0,0.,24.0,0.,24.0
1979-07-23 13:26:43.450 ,4,1,0.,24.0,0.,24.0
1979-07-23 13:27:07.450 ,4,0,0.,24.0,0.,24.0
1979-07-23 13:27:31.450 ,5,1,0.,24.0,0.,24.0
1979-07-23 13:27:55.450 ,5,0,0.,24.0,0.,24.0
1979-07-23 13:29:07.450 ,0,0,0.,24.0,0.,24.0
1979-07-23 13:29:31.450 ,0,0,0.,24.0,0.,24.0
1979-07-23 13:29:55.450 ,7,1,0.,24.0,0.,24.0
1979-07-23 13:30:19.450 ,7,0,0.,24.0,0.,24.0
1979-07-23 13:30:43.450 ,6,1,0.,24.0,0.,24.0
1979-07-23 13:31:07.450 ,6,0,0.,24.0,0.,24.0
1979-07-23 13:31:31.450 ,5,1,0.,24.0,0.,24.0
1979-07-23 13:31:55.450 ,5,0,0.,24.0,0.,24.0
1979-07-23 13:32:19.450 ,4,1,0.,24.0,0.,24.0
1979-07-23 13:32:43.450 ,4,0,0.,24.0,0.,24.0
1979-07-23 13:33:07.450 ,3,1,0.,24.0,0.,24.0
1979-07-23 13:33:31.450 ,3,0,0.,24.0,0.,24.0
1979-07-23 13:33:55.450 ,2,1,0.,24.0,0.,24.0
1979-07-23 13:34:19.450 ,2,0,0.,24.0,0.,24.0
1979-07-23 13:34:43.450 ,1,1,0.,24.0,0.,24.0
1979-07-23 13:35:07.450 ,1,0,0.,24.0,0.,24.0
1979-07-23 13:35:31.450 ,0,1,0.,24.0,0.,24.0
1979-07-23 13:35:55.450 ,0,0,0.,24.0,0.,24.0
1979-07-23 13:37:07.450 ,0,0,0.,24.0,0.,24.0
1979-07-23 13:37:31.450 ,0,0,0.,24.0,0.,24.0
1979-07-23 13:37:55.450 ,2,1,0.,24.0,0.,24.0
1979-07-23 13:38:19.450 ,2,0,0.,24.0,0.,24.0
1979-07-23 13:38:43.450 ,3,1,0.,24.0,0.,24.0
1979-07-23 13:39:07.450 ,3,0,0.,24.0,0.,24.0
1979-07-23 13:39:31.450 ,4,1,0.,24.0,0.,24.0
1979-07-23 13:39:55.450 ,4,0,0.,24.0,0.,24.0
1979-07-23 13:40:19.450 ,5,1,0.,24.0,0.,24.0
1979-07-23 13:40:43.450 ,5,0,0.,24.0,0.,24.0
1979-07-23 13:41:07.450 ,6,1,0.,24.0,0.,24.0
1979-07-23 13:41:31.450 ,6,0,0.,24.0,0.,24.0
1979-07-23 13:41:55.450 ,7,1,0.,24.0,0.,24.0
1979-07-23 13:42:19.450 ,7,0,0.,24.0,0.,24.0
1979-07-23 13:42:43.450 ,7,1,0.,24.0,0.,24.0
1979-07-23 13:43:07.450 ,7,0,0.,24.0,0.,24.0
1979-07-23 13:43:31.450 ,6,1,0.,24.0,0.,24.0
1979-07-23 13:43:55.450 ,6,0,0.,24.0,0.,24.0
1979-07-23 13:44:19.450 ,5,1,0.,24.0,0.,24.0
1979-07-23 13:44:43.450 ,5,0,0.,24.0,0.,24.0
1979-07-23 13:45:07.450 ,4,1,0.,24.0,0.,24.0
1979-07-23 13:45:31.450 ,4,0,0.,24.0,0.,24.0
1979-07-23 13:45:55.450 ,3,1,0.,24.0,0.,24.0
1979-07-23 13:46:19.450 ,3,0,0.,24.0,0.,24.0
1979-07-23 13:46:43.450 ,2,1,0.,24.0,0.,24.0
1979-07-23 13:47:07.450 ,2,0,0.,24.0,0.,24.0
1979-07-23 13:47:31.450 ,1,1,0.,24.0,0.,24.0
1979-07-23 13:47:55.450 ,1,0,0.,24.0,0.,24.0
1979-07-23 13:48:19.450 ,0,1,0.,24.0,0.,24.0
1979-07-23 13:48:43.450 ,0,0,0.,24.0,0.,24.0
1979-07-23 13:49:07.450 ,0,1,0.,24.0,0.,24.0
1979-07-23 13:49:31.450 ,0,0,0.,24.0,0.,24.0
1979-07-23 13:49:55.450 ,1,1,0.,24.0,0.,24.0
1979-07-23 13:50:19.450 ,1,0,0.,24.0,0.,24.0
1979-07-23 13:50:43.450 ,2,1,0.,24.0,0.,24.0
1979-07-23 13:51:07.450 ,2,0,0.,24.0,0.,24.0
1979-07-23 13:51:31.450 ,3,1,0.,24.0,0.,24.0
1979-07-23 13:51:55.450 ,3,0,0.,24.0,0.,24.0
1979-07-23 13:52:19.450 ,4,1,0.,24.0,0.,24.0
1979-07-23 13:52:43.450 ,4,0,0.,24.0,0.,24.0
1979-07-23 13:53:07.450 ,5,1,0.,24.0,0.,24.0
1979-07-23 13:53:31.450 ,5,0,0.,24.0,0.,24.0
1979-07-23 13:53:55.450 ,6,1,0.,24.0,0.,24.0
1979-07-23 13:54:19.450 ,6,0,0.,24.0,0.,24.0
1979-07-23 13:55:31.450 ,0,0,0.,24.0,0.,24.0
1979-07-23 13:55:55.450 ,0,1,0.,24.0,0.,24.0
1979-07-23 13:56:19.450 ,4,1,0.,24.0,0.,24.0
1979-07-23 13:56:43.450 ,7,1,0.,24.0,0.,24.0
1979-07-23 13:57:07.450 ,3,1,0.,24.0,0.,24.0
1979-07-23 13:57:31.450 ,0,1,0.,24.0,0.,24.0
1979-07-23 13:57:55.450 ,4,1,0.,24.0,0.,24.0
1979-07-23 13:58:19.450 ,7,1,0.,24.0,0.,24.0
1979-07-23 13:58:43.450 ,3,1,0.,24.0,0.,24.0
1979-07-23 13:59:07.450 ,0,1,0.,24.0,0.,24.0
1979-07-23 13:59:31.450 ,4,1,0.,24.0,0.,24.0
1979-07-23 13:59:55.450 ,7,1,0.,24.0,0.,24.0
1979-07-23 14:00:19.450 ,3,1,0.,24.0,0.,24.0
1979-07-23 14:00:43.450 ,0,1,0.,24.0,0.,24.0
1979-07-23 14:01:07.450 ,4,1,0.,24.0,0.,24.0
1979-07-23 14:01:31.450 ,7,1,0.,24.0,0.,24.0
1979-07-23 14:01:55.450 ,3,1,0.,24.0,0.,24.0
1979-07-23 14:02:19.450 ,0,1,0.,24.0,0.,24.0
1979-07-23 14:02:43.450 ,4,1,0.,24.0,0.,24.0
1979-07-23 14:03:07.450 ,7,1,0.,24.0,0.,24.0
1979-07-23 14:03:31.450 ,3,1,0.,24.0,0.,24.0
1979-07-23 14:03:55.450 ,0,1,0.,24.0,0.,24.0
1979-07-23 14:04:19.450 ,4,1,0.,24.0,0.,24.0
1979-07-23 14:04:43.450 ,7,1,0.,24.0,0.,24.0
1979-07-23 14:05:07.450 ,3,1,0.,24.0,0.,24.0
1979-07-23 14:05:31.450 ,0,1,0.,24.0,0.,24.0
1979-07-23 14:05:55.450 ,0,0,0.,24.0,0.,24.0
1979-07-23 14:06:19.450 ,0,0,0.,24.0,0.,24.0
1979-07-23 14:06:43.450 ,5,1,0.,24.0,0.,24.0
1979-07-23 14:07:07.450 ,5,0,0.,24.0,0.,24.0
1979-07-23 14:07:31.450 ,4,1,1.,24.0,0.,24.0
1979-07-23 14:07:55.450 ,4,0,0.,24.0,0.,24.0
1979-07-23 14:08:19.450 ,3,1,0.,24.0,0.,24.0
1979-07-23 14:08:43.450 ,3,0,0.,24.0,0.,24.0
1979-07-23 14:09:07.450 ,0,0,,0,,0
1979-07-23 14:09:31.450 ,0,0,0.,24.0,0.,24.0
1979-07-23 14:09:55.450 ,1,1,0.,24.0,0.,24.0
1979-07-23 14:10:19.450 ,1,0,0.,24.0,0.,24.0
1979-07-23 14:10:43.450 ,0,1,0.,24.0,0.,24.0
1979-07-23 14:11:07.450 ,0,0,0.,24.0,0.,24.0
1979-07-23 14:11:31.450 ,0,1,0.,24.0,0.,24.0
1979-07-23 14:11:55.450 ,0,0,0.,24.0,0.,24.0
1979-07-23 14:12:19.450 ,1,1,0.,24.0,0.,24.0
1979-07-23 14:12:43.450 ,1,0,0.,24.0,0.,24.0
1979-07-23 14:13:07.450 ,2,1,0.,24.0,0.,24.0
1979-07-23 14:13:31.450 ,2,0,0.,24.0,0.,24.0
1979-07-23 14:13:55.450 ,3,1,0.,24.0,0.,24.0
1979-07-23 14:14:19.450 ,3,0,0.,24.0,0.,24.0
1979-07-23 14:14:43.450 ,4,1,0.,24.0,0.,24.0
1979-07-23 14:15:07.450 ,4,0,0.,24.0,0.,24.0
1979-07-23 14:15:31.450 ,5,1,0.,24.0,0.,24.0
1979-07-23 14:15:55.450 ,5,0,0.,24.0,0.,24.0
1979-07-23 14:16:19.450 ,6,1,0.,24.0,0.,24.0
1979-07-23 14:16:43.450 ,6,0,0.,24.0,0.,24.0
1979-07-23 14:17:07.450 ,7,1,0.,24.0,0.,24.0
1979-07-23 14:17:31.450 ,7,0,0.,24.0,0.,24.0
1979-07-23 14:17:55.450 ,7,1,0.,24.0,0.,24.0
1979-07-23 14:18:19.450 ,7,0,0.,24.0,0.,24.0
1979-07-23 14:18:43.450 ,6,1,0.,24.0,0.,24.0
1979-07-23 14:19:07.450 ,6,0,0.,24.0,0.,24.0
1979-07-23 14:19:31.450 ,5,1,0.,24.0,0.,24.0
1979-07-23 14:19:55.450 ,5,0,0.,24.0,0.,24.0
1979-07-23 14:20:19.450 ,4,1,0.,24.0,0.,24.0
1979-07-23 14:20:43.450 ,4,0,0.,24.0,0.,24.0
1979-07-23 14:21:07.450 ,3,1,0.,24.0,0.,24.0
1979-07-23 14:21:31.450 ,3,0,0.,24.0,0.,24.0
1979-07-23 14:21:55.450 ,2,1,0.,24.0,0.,24.0
1979-07-23 14:22:19.450 ,2,0,0.,24.0,0.,24.0
1979-07-23 14:22:43.450 ,1,1,0.,24.0,0.,24.0
1979-07-23 14:23:07.450 ,1,0,0.,24.0,0.,24.0
1979-07-23 14:23:31.450 ,0,1,1.,24.0,0.,24.0
1979-07-23 14:23:55.450 ,0,0,0.,24.0,0.,24.0
1979-07-23 14:24:19.450 ,0,1,0.,24.0,0.,24.0
1979-07-23 14:24:43.450 ,0,0,0.,24.0,0.,24.0
1979-07-23 14:25:07.450 ,1,1,0.,24.0,0.,24.0
1979-07-23 14:25:31.450 ,1,0,0.,24.0,0.,24.0
1979-07-23 14:25:55.450 ,2,1,0.,24.0,0.,24.0
1979-07-23 14:26:19.450 ,2,0,0.,24.0,0.,24.0
1979-07-23 14:26:43.450 ,3,1,0.,24.0,0.,24.0
1979-07-23 14:27:07.450 ,3,0,0.,24.0,0.,24.0
1979-07-23 14:27:31.450 ,4,1,0.,24.0,0.,24.0
1979-07-23 14:27:55.450 ,4,0,0.,24.0,0.,24.0
1979-07-23 14:28:19.450 ,5,1,0.,24.0,0.,24.0
1979-07-23 14:28:43.450 ,5,0,0.,24.0,0.,24.0
1979-07-23 14:29:07.450 ,6,1,0.,24.0,0.,24.0
1979-07-23 14:29:31.450 ,6,0,0.,24.0,0.,24.0
1979-07-23 14:29:55.450 ,7,1,0.,24.0,0.,24.0
1979-07-23 14:30:19.450 ,7,0,0.,24.0,0.,24.0
1979-07-23 14:30:43.450 ,7,1,0.,24.0,0.,24.0
1979-07-23 14:31:07.450 ,7,0,0.,24.0,0.,24.0
1979-07-23 14:31:31.450 ,6,1,0.,24.0,0.,24.0
1979-07-23 14:31:55.450 ,6,0,0.,24.0,0.,24.0
1979-07-23 14:32:19.450 ,5,1,0.,24.0,0.,24.0
1979-07-23 14:32:43.450 ,0,0,,0,,0
1979-07-23 14:32:43.450 ,0,0,,0,,0
1979-07-23 14:32:43.450 ,0,0,,0,,0
1979-07-23 14:33:07.450 ,4,1,0.,24.0,0.,24.0
1979-07-23 14:33:31.450 ,4,0,0.,24.0,0.,24.0
1979-07-23 14:33:55.450 ,3,1,0.,24.0,0.,24.0
1979-07-23 14:34:19.450 ,3,0,0.,24.0,0.,24.0
1979-07-23 14:34:43.450 ,2,1,0.,24.0,0.,24.0
1979-07-23 14:35:07.450 ,2,0,0.,24.0,0.,24.0
1979-07-23 14:35:31.450 ,1,1,0.,24.0,0.,24.0
1979-07-23 14:35:55.450 ,1,0,0.,24.0,0.,24.0
1979-07-23 14:36:19.450 ,0,1,0.,24.0,0.,24.0
1979-07-23 14:36:43.450 ,0,0,0.,24.0,0.,24.0
1979-07-23 14:37:07.450 ,0,1,0.,24.0,0.,24.0
1979-07-23 14:37:31.450 ,0,0,0.,24.0,0.,24.0
1979-07-23 14:37:55.450 ,1,1,0.,24.0,0.,24.0
1979-07-23 14:38:19.450 ,1,0,0.,24.0,0.,24.0
1979-07-23 14:38:43.450 ,2,1,0.,24.0,0.,24.0
1979-07-23 14:39:07.450 ,2,0,0.,24.0,0.,24.0
1979-07-23 14:39:31.450 ,3,1,0.,24.0,0.,24.0
1979-07-23 14:39:55.450 ,3,0,0.,24.0,0.,24.0
1979-07-23 14:40:19.450 ,4,1,0.,24.0,0.,24.0
1979-07-23 14:40:43.450 ,4,0,0.,24.0,0.,24.0
1979-07-23 14:41:07.450 ,5,1,0.,24.0,0.,24.0
1979-07-23 14:41:31.450 ,5,0,0.,24.0,0.,24.0
1979-07-23 14:41:55.450 ,6,1,0.,24.0,0.,24.0
1979-07-23 14:42:19.450 ,6,0,0.,24.0,0.,24.0
1979-07-23 14:42:43.450 ,7,0,0.,24.0,0.,24.0
1979-07-23 14:43:07.450 ,7,0,0.,24.0,0.,24.0
1979-07-23 14:43:31.450 ,3,1,0.,24.0,0.,24.0
1979-07-23 14:43:55.450 ,0,1,0.,24.0,0.,24.0
1979-07-23 14:44:19.450 ,4,1,0.,24.0,0.,24.0
1979-07-23 14:44:43.450 ,7,1,0.,24.0,0.,24.0
1979-07-23 14:45:07.450 ,3,1,0.,24.0,0.,24.0
1979-07-23 14:45:31.450 ,0,1,0.,24.0,0.,24.0
1979-07-23 14:45:55.450 ,4,1,0.,24.0,0.,24.0
1979-07-23 14:46:19.450 ,7,1,0.,24.0,0.,24.0
1979-07-23 14:46:43.450 ,3,1,0.,24.0,0.,24.0
1979-07-23 14:47:07.450 ,0,1,0.,24.0,0.,24.0
1979-07-23 14:47:31.450 ,4,1,0.,24.0,0.,24.0
1979-07-23 14:47:55.450 ,7,1,0.,24.0,0.,24.0
1979-07-23 14:48:19.450 ,3,1,0.,24.0,0.,24.0
1979-07-23 14:48:43.450 ,0,1,0.,24.0,0.,24.0
1979-07-23 14:49:07.450 ,4,1,0.,24.0,0.,24.0
1979-07-23 14:49:31.450 ,7,1,0.,24.0,0.,24.0
1979-07-23 14:49:55.440 ,3,1,0.,24.0,0.,24.0
1979-07-23 14:50:19.440 ,0,1,0.,24.0,0.,24.0
1979-07-23 14:50:43.440 ,4,1,0.,24.0,0.,24.0
1979-07-23 14:51:07.440 ,7,1,0.,24.0,0.,24.0
1979-07-23 14:51:31.440 ,3,1,0.,24.0,0.,24.0
1979-07-23 14:51:55.440 ,0,1,0.,24.0,0.,24.0
1979-07-23 14:52:19.440 ,4,1,0.,24.0,0.,24.0
1979-07-23 14:52:43.440 ,7,1,0.,24.0,0.,24.0
1979-07-23 14:53:07.440 ,3,1,0.,24.0,0.,24.0
1979-07-23 14:53:31.440 ,0,1,0.,24.0,0.,24.0
1979-07-23 14:53:55.440 ,0,0,0.,24.0,0.,24.0
1979-07-23 14:54:19.440 ,0,0,0.,24.0,0.,24.0
1979-07-23 14:54:43.440 ,5,1,0.,24.0,0.,24.0
1979-07-23 14:55:07.440 ,5,0,0.,24.0,0.,24.0
1979-07-23 14:55:31.440 ,4,1,0.,24.0,0.,24.0
1979-07-23 14:55:55.440 ,4,0,0.,24.0,0.,24.0
1979-07-23 14:56:19.440 ,3,1,0.,24.0,0.,24.0
1979-07-23 14:56:43.440 ,3,0,0.,24.0,0.,24.0
1979-07-23 14:57:07.440 ,2,1,0.,24.0,0.,24.0
1979-07-23 14:57:31.440 ,2,0,0.,24.0,0.,24.0
1979-07-23 14:57:55.440 ,1,1,0.,24.0,0.,24.0
1979-07-23 14:58:19.440 ,1,0,0.,24.0,0.,24.0
1979-07-23 14:58:43.440 ,0,1,0.,24.0,0.,24.0
1979-07-23 14:59:07.440 ,0,0,0.,24.0,0.,24.0
1979-07-23 14:59:31.440 ,0,1,0.,24.0,0.,24.0
1979-07-23 14:59:55.440 ,0,0,0.,24.0,0.,24.0
1979-07-23 15:00:19.440 ,1,1,0.,24.0,0.,24.0
